Time,TemperatureF,DewpointF,PressureIn,WindDirection,WindDirectionDegrees,WindSpeedMPH,WindSpeedGustMPH,Humidity,HourlyPrecipIn,Conditions,Clouds,dailyrainin,SoftwareType,DateUTC
2013-03-07 00:02:00,43.5,40.2,29.76,NW,325,0.0,1.0,88,0.00,-RA,-RA,0.00,WeatherDisplay:10.37,2013-03-07 08:02:00,
2013-03-07 00:12:00,43.3,40.0,29.77,NNE,28,0.0,0.0,88,0.00,-RA,-RA,0.00,WeatherDisplay:10.37,2013-03-07 08:12:00,
2013-03-07 00:22:00,43.5,40.5,29.77,SSE,161,0.0,0.0,89,0.00,-RA,-RA,0.03,WeatherDisplay:10.37,2013-03-07 08:22:00,
2013-03-07 00:32:00,43.5,40.5,29.78,WNW,296,0.0,0.0,89,0.00,-RA,-RA,0.03,WeatherDisplay:10.37,2013-03-07 08:32:00,
2013-03-07 00:42:00,43.5,40.5,29.78,North,350,0.0,1.0,89,0.00,-RA,-RA,0.03,WeatherDisplay:10.37,2013-03-07 08:42:00,
2013-03-07 00:47:00,43.5,40.5,29.78,SSE,158,0.0,0.0,89,0.00,-RA,-RA,0.03,WeatherDisplay:10.37,2013-03-07 08:47:00,
2013-03-07 00:52:00,43.7,40.7,29.78,SE,125,0.0,0.0,89,0.00,-RA,-RA,0.03,WeatherDisplay:10.37,2013-03-07 08:52:00,
2013-03-07 01:02:00,43.5,40.2,29.78,East,94,0.0,0.0,88,0.03,-RA,-RA,0.06,WeatherDisplay:10.37,2013-03-07 09:02:00,
2013-03-07 01:07:00,43.5,40.5,29.79,East,101,0.0,0.0,89,0.00,-RA,-RA,0.06,WeatherDisplay:10.37,2013-03-07 09:07:00,
2013-03-07 01:12:00,43.5,40.5,29.79,East,90,0.0,0.0,89,0.00,-RA,-RA,0.06,WeatherDisplay:10.37,2013-03-07 09:12:00,
2013-03-07 01:22:00,43.3,40.3,29.79,East,88,0.0,0.0,89,0.00,-RA,-RA,0.06,WeatherDisplay:10.37,2013-03-07 09:22:00,
2013-03-07 01:32:00,43.3,40.3,29.79,ESE,111,0.0,0.0,89,0.00,-RA,-RA,0.08,WeatherDisplay:10.37,2013-03-07 09:32:00,
2013-03-07 01:42:00,43.3,40.3,29.79,ESE,113,0.0,0.0,89,0.00,-RA,-RA,0.08,WeatherDisplay:10.37,2013-03-07 09:42:00,
2013-03-07 01:52:00,43.5,40.5,29.80,East,96,0.0,0.0,89,0.00,-RA,-RA,0.08,WeatherDisplay:10.37,2013-03-07 09:52:00,
2013-03-07 02:02:00,43.5,40.5,29.80,SE,130,0.0,1.0,89,0.00,-RA,-RA,0.08,WeatherDisplay:10.37,2013-03-07 10:02:00,
2013-03-07 02:07:00,43.5,40.5,29.80,SE,128,0.0,1.0,89,0.03,-RA,-RA,0.11,WeatherDisplay:10.37,2013-03-07 10:07:00,
2013-03-07 02:12:00,43.5,40.5,29.80,SSE,150,0.0,0.0,89,0.00,-RA,-RA,0.11,WeatherDisplay:10.37,2013-03-07 10:12:00,
2013-03-07 02:22:00,43.7,40.7,29.80,WSW,239,0.0,0.0,89,0.00,-RA,-RA,0.11,WeatherDisplay:10.37,2013-03-07 10:22:00,
2013-03-07 02:32:00,43.7,40.7,29.81,NNW,336,0.0,0.0,89,0.03,-RA,-RA,0.14,WeatherDisplay:10.37,2013-03-07 10:32:00,
2013-03-07 02:42:00,43.7,40.7,29.81,NE,45,0.0,0.0,89,0.00,-RA,-RA,0.14,WeatherDisplay:10.37,2013-03-07 10:42:00,
2013-03-07 02:52:00,43.7,40.7,29.81,NNW,343,0.0,0.0,89,0.00,-RA,-RA,0.14,WeatherDisplay:10.37,2013-03-07 10:52:00,
2013-03-07 02:57:00,43.7,40.7,29.81,WNW,291,0.0,0.0,89,0.00,-RA,-RA,0.14,WeatherDisplay:10.37,2013-03-07 10:57:00,
2013-03-07 03:07:00,43.7,40.7,29.81,SSE,157,0.0,0.0,89,0.00,-RA,-RA,0.14,WeatherDisplay:10.37,2013-03-07 11:07:00,
2013-03-07 03:12:00,43.7,40.7,29.81,SE,135,0.0,0.0,89,0.00,-RA,-RA,0.14,WeatherDisplay:10.37,2013-03-07 11:12:00,
2013-03-07 03:22:00,43.7,41.0,29.81,SSW,195,0.0,2.0,90,0.00,-RA,-RA,0.14,WeatherDisplay:10.37,2013-03-07 11:22:00,
2013-03-07 03:27:00,43.7,41.0,29.82,South,182,1.0,2.0,90,0.03,-RA,-RA,0.17,WeatherDisplay:10.37,2013-03-07 11:27:00,
2013-03-07 03:37:00,43.9,41.1,29.82,SSE,151,1.0,2.0,90,0.00,-RA,-RA,0.17,WeatherDisplay:10.37,2013-03-07 11:37:00,
2013-03-07 03:42:00,43.9,40.8,29.82,SE,140,1.0,2.0,89,0.00,-RA,-RA,0.17,WeatherDisplay:10.37,2013-03-07 11:42:00,
2013-03-07 03:52:00,43.7,40.7,29.82,South,175,1.0,2.0,89,0.00,-RA,-RA,0.17,WeatherDisplay:10.37,2013-03-07 11:52:00,
2013-03-07 03:57:00,43.7,40.7,29.82,SSE,166,1.0,2.0,89,0.00,-RA,-RA,0.17,WeatherDisplay:10.37,2013-03-07 11:57:00,
2013-03-07 04:07:00,43.9,40.8,29.83,South,190,0.0,1.0,89,0.00,-RA,-RA,0.19,WeatherDisplay:10.37,2013-03-07 12:07:00,
2013-03-07 04:12:00,43.7,40.7,29.83,South,183,0.0,1.0,89,0.00,-RA,-RA,0.19,WeatherDisplay:10.37,2013-03-07 12:12:00,
2013-03-07 04:22:00,43.7,40.7,29.83,SSE,159,0.0,1.0,89,0.00,-RA,-RA,0.19,WeatherDisplay:10.37,2013-03-07 12:22:00,
2013-03-07 04:32:00,43.7,40.7,29.83,South,187,0.0,1.0,89,0.00,-RA,-RA,0.19,WeatherDisplay:10.37,2013-03-07 12:32:00,
2013-03-07 04:42:00,43.7,40.7,29.83,SSW,211,0.0,0.0,89,0.00,-RA,-RA,0.19,WeatherDisplay:10.37,2013-03-07 12:42:00,
2013-03-07 04:52:00,43.7,40.7,29.83,WSW,241,0.0,1.0,89,0.00,-RA,-RA,0.19,WeatherDisplay:10.37,2013-03-07 12:52:00,
2013-03-07 05:02:00,43.7,40.7,29.83,WSW,246,0.0,0.0,89,0.00,-RA,-RA,0.19,WeatherDisplay:10.37,2013-03-07 13:02:00,
2013-03-07 05:07:00,43.7,40.7,29.83,West,272,0.0,0.0,89,0.00,-RA,-RA,0.19,WeatherDisplay:10.37,2013-03-07 13:07:00,
2013-03-07 05:12:00,43.7,40.7,29.83,West,277,0.0,0.0,89,0.00,-RA,-RA,0.19,WeatherDisplay:10.37,2013-03-07 13:12:00,
2013-03-07 05:22:00,43.7,40.7,29.83,SE,144,0.0,0.0,89,0.00,-RA,-RA,0.19,WeatherDisplay:10.37,2013-03-07 13:22:00,
2013-03-07 05:32:00,43.7,40.7,29.84,West,262,0.0,0.0,89,0.00,-RA,-RA,0.19,WeatherDisplay:10.37,2013-03-07 13:32:00,
2013-03-07 05:42:00,43.5,40.5,29.84,ENE,60,0.0,0.0,89,0.00,-RA,-RA,0.19,WeatherDisplay:10.37,2013-03-07 13:42:00,
2013-03-07 05:52:00,43.5,40.5,29.85,South,189,0.0,2.0,89,0.00,-RA,-RA,0.22,WeatherDisplay:10.37,2013-03-07 13:52:00,
2013-03-07 06:02:00,43.5,40.5,29.85,WSW,247,0.0,0.0,89,0.00,-RA,-RA,0.22,WeatherDisplay:10.37,2013-03-07 14:02:00,
2013-03-07 06:08:00,43.5,40.5,29.85,SSE,167,0.0,0.0,89,0.00,-RA,-RA,0.22,WeatherDisplay:10.37,2013-03-07 14:08:00,
2013-03-07 06:17:00,43.7,41.0,29.85,SE,146,0.0,1.0,90,0.00,-RA,-RA,0.22,WeatherDisplay:10.37,2013-03-07 14:17:00,
2013-03-07 06:22:00,43.7,40.7,29.85,WSW,247,0.0,0.0,89,0.00,-RA,-RA,0.22,WeatherDisplay:10.37,2013-03-07 14:22:00,
2013-03-07 06:32:00,43.7,40.7,29.86,South,181,0.0,0.0,89,0.00,-RA,-RA,0.22,WeatherDisplay:10.37,2013-03-07 14:32:00,
2013-03-07 06:37:00,43.7,40.7,29.86,WNW,296,0.0,0.0,89,0.00,-RA,-RA,0.22,WeatherDisplay:10.37,2013-03-07 14:37:00,
2013-03-07 06:42:00,43.7,40.7,29.86,NW,317,0.0,0.0,89,0.03,-RA,-RA,0.25,WeatherDisplay:10.37,2013-03-07 14:42:00,
2013-03-07 06:47:00,43.7,40.7,29.86,ESE,122,0.0,0.0,89,0.00,-RA,-RA,0.25,WeatherDisplay:10.37,2013-03-07 14:47:00,
2013-03-07 06:52:00,43.9,40.8,29.86,SSW,206,0.0,0.0,89,0.00,-RA,-RA,0.25,WeatherDisplay:10.37,2013-03-07 14:52:00,
2013-03-07 07:02:00,43.9,40.8,29.86,SSW,211,0.0,1.0,89,0.00,-RA,-RA,0.25,WeatherDisplay:10.37,2013-03-07 15:02:00,
2013-03-07 07:08:00,43.9,40.8,29.87,SSW,201,0.0,2.0,89,0.00,-RA,-RA,0.25,WeatherDisplay:10.37,2013-03-07 15:08:00,
2013-03-07 07:17:00,44.1,41.0,29.87,South,180,0.0,2.0,89,0.00,-RA,-RA,0.25,WeatherDisplay:10.37,2013-03-07 15:17:00,
2013-03-07 07:22:00,44.1,41.0,29.87,SSW,195,0.0,2.0,89,0.00,-RA,-RA,0.25,WeatherDisplay:10.37,2013-03-07 15:22:00,
2013-03-07 07:32:00,43.9,40.8,29.87,WSW,246,0.0,2.0,89,0.00,-RA,-RA,0.25,WeatherDisplay:10.37,2013-03-07 15:32:00,
2013-03-07 07:42:00,44.1,41.0,29.87,SW,230,0.0,1.0,89,0.00,-RA,-RA,0.25,WeatherDisplay:10.37,2013-03-07 15:42:00,
2013-03-07 07:52:00,44.1,41.0,29.88,WSW,253,0.0,0.0,89,0.00,-RA,-RA,0.25,WeatherDisplay:10.37,2013-03-07 15:52:00,
2013-03-07 08:02:00,44.1,41.0,29.88,South,174,0.0,1.0,89,0.00,-RA,-RA,0.25,WeatherDisplay:10.37,2013-03-07 16:02:00,
2013-03-07 08:07:00,44.2,41.2,29.89,SW,215,0.0,2.0,89,0.00,-RA,-RA,0.25,WeatherDisplay:10.37,2013-03-07 16:07:00,
2013-03-07 08:17:00,44.4,41.4,29.89,NNW,338,0.0,0.0,89,0.00,-RA,-RA,0.25,WeatherDisplay:10.37,2013-03-07 16:17:00,
2013-03-07 08:22:00,44.4,41.4,29.89,North,351,0.0,0.0,89,0.00,-RA,-RA,0.25,WeatherDisplay:10.37,2013-03-07 16:22:00,
2013-03-07 08:32:00,44.6,41.6,29.89,SW,220,1.0,3.0,89,0.00,-RA,-RA,0.25,WeatherDisplay:10.37,2013-03-07 16:32:00,
2013-03-07 08:37:00,44.8,41.7,29.89,SSW,207,1.0,5.0,89,0.03,-RA,-RA,0.28,WeatherDisplay:10.37,2013-03-07 16:37:00,
2013-03-07 08:42:00,45.0,41.9,29.89,South,183,1.0,3.0,89,0.00,-RA,-RA,0.28,WeatherDisplay:10.37,2013-03-07 16:42:00,
2013-03-07 08:52:00,45.1,42.1,29.90,SW,223,1.0,2.0,89,0.00,-RA,-RA,0.28,WeatherDisplay:10.37,2013-03-07 16:52:00,
2013-03-07 09:02:00,45.1,41.8,29.90,SE,141,2.0,3.0,88,0.00,-RA,-RA,0.28,WeatherDisplay:10.37,2013-03-07 17:02:00,
2013-03-07 09:07:00,45.1,41.8,29.90,SSE,156,2.0,3.0,88,0.00,-RA,-RA,0.28,WeatherDisplay:10.37,2013-03-07 17:07:00,
2013-03-07 09:17:00,45.3,42.0,29.90,South,170,1.0,2.0,88,0.00,-RA,-RA,0.28,WeatherDisplay:10.37,2013-03-07 17:17:00,
2013-03-07 09:22:00,45.3,42.0,29.90,SSW,207,1.0,2.0,88,0.00,-RA,-RA,0.28,WeatherDisplay:10.37,2013-03-07 17:22:00,
2013-03-07 09:32:00,45.5,42.2,29.91,South,176,1.0,5.0,88,0.00,-RA,-RA,0.28,WeatherDisplay:10.37,2013-03-07 17:32:00,
2013-03-07 09:42:00,45.7,42.3,29.91,South,174,1.0,3.0,88,0.00,-RA,-RA,0.28,WeatherDisplay:10.37,2013-03-07 17:42:00,
2013-03-07 09:52:00,46.0,43.0,29.91,SSE,161,1.0,3.0,89,0.00,-RA,-RA,0.28,WeatherDisplay:10.37,2013-03-07 17:52:00,
2013-03-07 10:02:00,46.2,43.2,29.91,South,169,1.0,0.0,89,0.00,-RA,-RA,0.28,WeatherDisplay:10.37,2013-03-07 18:02:00,
2013-03-07 10:07:00,46.4,43.3,29.92,South,179,0.0,2.0,89,0.00,-RA,-RA,0.28,WeatherDisplay:10.37,2013-03-07 18:07:00,
2013-03-07 10:17:00,46.6,43.2,29.92,SSW,201,1.0,3.0,88,0.00,-RA,-RA,0.28,WeatherDisplay:10.37,2013-03-07 18:17:00,
2013-03-07 10:22:00,46.6,43.2,29.92,SSW,192,1.0,2.0,88,0.00,-RA,-RA,0.28,WeatherDisplay:10.37,2013-03-07 18:22:00,
2013-03-07 10:32:00,46.8,43.4,29.92,SSE,160,0.0,2.0,88,0.00,-RA,-RA,0.28,WeatherDisplay:10.37,2013-03-07 18:32:00,
2013-03-07 10:42:00,47.1,43.7,29.92,SSE,149,0.0,2.0,88,0.00,-RA,-RA,0.28,WeatherDisplay:10.37,2013-03-07 18:42:00,
2013-03-07 10:47:00,47.3,43.9,29.93,SE,144,1.0,3.0,88,0.00,-RA,-RA,0.28,WeatherDisplay:10.37,2013-03-07 18:47:00,
2013-03-07 10:52:00,47.5,44.1,29.93,SSE,154,1.0,3.0,88,0.00,-RA,-RA,0.28,WeatherDisplay:10.37,2013-03-07 18:52:00,
2013-03-07 11:02:00,48.0,44.6,29.93,SSE,157,0.0,1.0,88,0.00,-RA,-RA,0.28,WeatherDisplay:10.37,2013-03-07 19:02:00,
2013-03-07 11:08:00,48.2,44.8,29.93,SSE,154,0.0,2.0,88,0.00,-RA,-RA,0.28,WeatherDisplay:10.37,2013-03-07 19:08:00,
2013-03-07 11:17:00,48.6,44.9,29.93,SSE,150,1.0,2.0,87,0.00,-RA,-RA,0.28,WeatherDisplay:10.37,2013-03-07 19:17:00,
2013-03-07 11:22:00,48.6,44.9,29.93,SSE,168,1.0,2.0,87,0.03,-RA,-RA,0.30,WeatherDisplay:10.37,2013-03-07 19:22:00,
2013-03-07 11:32:00,48.6,44.9,29.93,SSE,151,0.0,1.0,87,0.00,-RA,-RA,0.30,WeatherDisplay:10.37,2013-03-07 19:32:00,
2013-03-07 11:42:00,48.6,44.9,29.93,SSE,157,0.0,1.0,87,0.00,-RA,-RA,0.30,WeatherDisplay:10.37,2013-03-07 19:42:00,
2013-03-07 11:47:00,48.6,44.9,29.93,SE,140,0.0,2.0,87,0.00,-RA,-RA,0.30,WeatherDisplay:10.37,2013-03-07 19:47:00,
2013-03-07 11:57:00,48.7,45.0,29.93,SW,224,0.0,0.0,87,0.00,-RA,-RA,0.30,WeatherDisplay:10.37,2013-03-07 19:57:00,
2013-03-07 12:02:00,48.7,45.0,29.93,SSE,168,0.0,3.0,87,0.00,-RA,-RA,0.30,WeatherDisplay:10.37,2013-03-07 20:02:00,
2013-03-07 12:08:00,48.7,45.0,29.94,South,171,0.0,3.0,87,0.00,-RA,-RA,0.30,WeatherDisplay:10.37,2013-03-07 20:08:00,
2013-03-07 12:17:00,49.1,45.4,29.94,South,184,0.0,2.0,87,0.00,-RA,-RA,0.30,WeatherDisplay:10.37,2013-03-07 20:17:00,
2013-03-07 12:22:00,49.3,45.6,29.94,South,180,1.0,2.0,87,0.00,-RA,-RA,0.30,WeatherDisplay:10.37,2013-03-07 20:22:00,
2013-03-07 12:32:00,49.8,46.1,29.93,ESE,105,0.0,2.0,87,0.00,-RA,-RA,0.30,WeatherDisplay:10.37,2013-03-07 20:32:00,
2013-03-07 12:42:00,50.4,46.6,29.93,SE,126,1.0,3.0,87,0.00,-RA,-RA,0.30,WeatherDisplay:10.37,2013-03-07 20:42:00,
2013-03-07 12:52:00,50.7,46.4,29.92,SSW,203,1.0,2.0,85,0.00,-RA,-RA,0.30,WeatherDisplay:10.37,2013-03-07 20:52:00,
2013-03-07 13:02:00,50.9,46.6,29.92,North,358,0.0,0.0,85,0.00,-RA,-RA,0.30,WeatherDisplay:10.37,2013-03-07 21:02:00,
2013-03-07 13:08:00,50.9,46.2,29.92,NNW,336,0.0,3.0,84,0.00,OVC,OVC,0.30,WeatherDisplay:10.37,2013-03-07 21:08:00,
2013-03-07 13:17:00,50.9,45.9,29.92,SSW,204,0.0,1.0,83,0.00,OVC,OVC,0.30,WeatherDisplay:10.37,2013-03-07 21:17:00,
2013-03-07 13:22:00,51.3,46.3,29.92,SW,224,0.0,1.0,83,0.00,OVC,OVC,0.30,WeatherDisplay:10.37,2013-03-07 21:22:00,
2013-03-07 13:32:00,51.8,46.2,29.92,SE,140,2.0,5.0,81,0.00,OVC,OVC,0.30,WeatherDisplay:10.37,2013-03-07 21:32:00,
2013-03-07 13:42:00,52.0,45.3,29.92,SSE,160,2.0,5.0,78,0.00,OVC,OVC,0.30,WeatherDisplay:10.37,2013-03-07 21:42:00,
2013-03-07 13:47:00,52.0,45.3,29.91,SE,144,2.0,5.0,78,0.00,OVC,OVC,0.30,WeatherDisplay:10.37,2013-03-07 21:47:00,
2013-03-07 13:52:00,52.0,45.3,29.91,South,169,1.0,3.0,78,0.00,OVC,OVC,0.30,WeatherDisplay:10.37,2013-03-07 21:52:00,
2013-03-07 14:02:00,52.2,44.8,29.91,SSW,212,1.0,3.0,76,0.00,OVC,OVC,0.30,WeatherDisplay:10.37,2013-03-07 22:02:00,
2013-03-07 14:08:00,52.2,44.8,29.91,South,178,2.0,3.0,76,0.00,OVC,OVC,0.30,WeatherDisplay:10.37,2013-03-07 22:08:00,
2013-03-07 14:17:00,52.3,44.3,29.91,SE,140,2.0,6.0,74,0.00,OVC,OVC,0.30,WeatherDisplay:10.37,2013-03-07 22:17:00,
2013-03-07 14:22:00,52.2,43.8,29.91,SE,146,2.0,5.0,73,0.00,OVC,OVC,0.30,WeatherDisplay:10.37,2013-03-07 22:22:00,
2013-03-07 14:32:00,52.2,43.8,29.91,South,189,1.0,2.0,73,0.00,OVC,OVC,0.30,WeatherDisplay:10.37,2013-03-07 22:32:00,
2013-03-07 14:42:00,52.3,43.9,29.91,West,266,1.0,5.0,73,0.00,OVC,OVC,0.30,WeatherDisplay:10.37,2013-03-07 22:42:00,
2013-03-07 14:47:00,52.5,43.8,29.92,WSW,246,1.0,3.0,72,0.00,OVC,OVC,0.30,WeatherDisplay:10.37,2013-03-07 22:47:00,
2013-03-07 14:52:00,52.7,43.9,29.92,WSW,257,1.0,1.0,72,0.00,OVC,OVC,0.30,WeatherDisplay:10.37,2013-03-07 22:52:00,
2013-03-07 15:02:00,52.9,44.1,29.92,NE,48,0.0,1.0,72,0.00,OVC,OVC,0.30,WeatherDisplay:10.37,2013-03-07 23:02:00,
2013-03-07 15:07:00,52.7,43.6,29.92,NNW,347,0.0,3.0,71,0.00,OVC,OVC,0.30,WeatherDisplay:10.37,2013-03-07 23:07:00,
2013-03-07 15:17:00,52.9,43.7,29.92,NNW,333,0.0,3.0,71,0.00,OVC,OVC,0.30,WeatherDisplay:10.37,2013-03-07 23:17:00,
2013-03-07 15:22:00,52.9,43.7,29.92,NW,321,1.0,3.0,71,0.00,OVC,OVC,0.30,WeatherDisplay:10.37,2013-03-07 23:22:00,
2013-03-07 15:32:00,52.9,43.4,29.92,NNE,25,0.0,2.0,70,0.00,OVC,OVC,0.30,WeatherDisplay:10.37,2013-03-07 23:32:00,
2013-03-07 15:42:00,52.9,43.0,29.92,ESE,114,1.0,5.0,69,0.00,OVC,OVC,0.30,WeatherDisplay:10.37,2013-03-07 23:42:00,
2013-03-07 15:52:00,52.9,42.6,29.92,SE,125,0.0,1.0,68,0.00,OVC,OVC,0.30,WeatherDisplay:10.37,2013-03-07 23:52:00,
2013-03-07 16:02:00,53.1,43.2,29.92,SW,222,0.0,2.0,69,0.00,OVC,OVC,0.30,WeatherDisplay:10.37,2013-03-08 00:02:00,
2013-03-07 16:07:00,53.1,42.8,29.92,SSW,212,1.0,2.0,68,0.00,OVC,OVC,0.30,WeatherDisplay:10.37,2013-03-08 00:07:00,
2013-03-07 16:17:00,53.1,42.8,29.92,WNW,301,1.0,1.0,68,0.00,OVC,OVC,0.30,WeatherDisplay:10.37,2013-03-08 00:17:00,
2013-03-07 16:22:00,52.9,42.6,29.92,North,350,0.0,1.0,68,0.00,OVC,OVC,0.30,WeatherDisplay:10.37,2013-03-08 00:22:00,
2013-03-07 16:32:00,52.5,43.0,29.92,North,0,0.0,2.0,70,0.00,OVC,OVC,0.30,WeatherDisplay:10.37,2013-03-08 00:32:00,
2013-03-07 16:42:00,52.2,43.0,29.92,NW,322,0.0,0.0,71,0.00,OVC,OVC,0.30,WeatherDisplay:10.37,2013-03-08 00:42:00,
2013-03-07 16:52:00,51.8,43.1,29.91,NNW,330,0.0,2.0,72,0.00,OVC,OVC,0.30,WeatherDisplay:10.37,2013-03-08 00:52:00,
2013-03-07 17:02:00,51.4,43.4,29.91,NNW,330,0.0,0.0,74,0.00,OVC,OVC,0.30,WeatherDisplay:10.37,2013-03-08 01:02:00,
2013-03-07 17:07:00,51.3,43.6,29.92,NW,315,0.0,0.0,75,0.00,OVC,OVC,0.30,WeatherDisplay:10.37,2013-03-08 01:07:00,
2013-03-07 17:17:00,50.7,43.4,29.92,North,358,0.0,0.0,76,0.00,OVC,OVC,0.30,WeatherDisplay:10.37,2013-03-08 01:17:00,
2013-03-07 17:27:00,50.4,43.4,29.92,NNW,329,0.0,0.0,77,0.00,OVC,OVC,0.30,WeatherDisplay:10.37,2013-03-08 01:27:00,
2013-03-07 17:32:00,50.2,43.2,29.92,NW,324,0.0,0.0,77,0.00,OVC,OVC,0.30,WeatherDisplay:10.37,2013-03-08 01:32:00,
2013-03-07 17:42:00,49.6,43.1,29.92,NW,323,0.0,0.0,78,0.00,OVC,OVC,0.30,WeatherDisplay:10.37,2013-03-08 01:42:00,
2013-03-07 17:52:00,49.1,42.5,29.92,NW,308,0.0,0.0,78,0.00,OVC,OVC,0.30,WeatherDisplay:10.37,2013-03-08 01:52:00,
2013-03-07 18:02:00,48.7,42.5,29.92,NW,316,0.0,0.0,79,0.00,OVC,OVC,0.30,WeatherDisplay:10.37,2013-03-08 02:02:00,
2013-03-07 18:07:00,48.4,42.5,29.93,NW,304,0.0,0.0,80,0.00,OVC,OVC,0.30,WeatherDisplay:10.37,2013-03-08 02:07:00,
2013-03-07 18:17:00,48.0,42.1,29.93,NW,317,0.0,0.0,80,0.00,OVC,OVC,0.30,WeatherDisplay:10.37,2013-03-08 02:17:00,
2013-03-07 18:22:00,47.7,41.8,29.93,NW,306,0.0,0.0,80,0.00,OVC,OVC,0.30,WeatherDisplay:10.37,2013-03-08 02:22:00,
2013-03-07 18:32:00,47.3,41.8,29.93,NW,304,0.0,1.0,81,0.00,OVC,OVC,0.30,WeatherDisplay:10.37,2013-03-08 02:32:00,
2013-03-07 18:42:00,46.8,41.2,29.93,NW,317,0.0,0.0,81,0.00,OVC,OVC,0.30,WeatherDisplay:10.37,2013-03-08 02:42:00,
2013-03-07 18:52:00,46.2,41.0,29.93,NW,315,0.0,0.0,82,0.00,OVC,OVC,0.30,WeatherDisplay:10.37,2013-03-08 02:52:00,
2013-03-07 19:02:00,46.0,40.9,29.93,NW,322,0.0,0.0,82,0.00,OVC,OVC,0.30,WeatherDisplay:10.37,2013-03-08 03:02:00,
2013-03-07 19:08:00,45.9,41.0,29.93,NW,315,0.0,0.0,83,0.00,BKN,BKN,0.30,WeatherDisplay:10.37,2013-03-08 03:08:00,
2013-03-07 19:17:00,45.3,40.5,29.93,NW,326,0.0,0.0,83,0.00,BKN,BKN,0.30,WeatherDisplay:10.37,2013-03-08 03:17:00,
2013-03-07 19:22:00,45.1,40.3,29.93,NW,324,0.0,0.0,83,0.00,BKN,BKN,0.30,WeatherDisplay:10.37,2013-03-08 03:22:00,
2013-03-07 19:32:00,45.0,40.1,29.94,NW,315,0.0,0.0,83,0.00,BKN,BKN,0.30,WeatherDisplay:10.37,2013-03-08 03:32:00,
2013-03-07 19:42:00,44.8,40.2,29.94,NNW,329,0.0,0.0,84,0.00,BKN,BKN,0.30,WeatherDisplay:10.37,2013-03-08 03:42:00,
2013-03-07 19:52:00,44.4,39.9,29.94,NW,315,0.0,0.0,84,0.00,BKN,BKN,0.30,WeatherDisplay:10.37,2013-03-08 03:52:00,
2013-03-07 20:02:00,44.2,39.7,29.94,NNW,338,0.0,0.0,84,0.00,BKN,BKN,0.30,WeatherDisplay:10.37,2013-03-08 04:02:00,
2013-03-07 20:07:00,44.1,39.8,29.94,NNW,338,0.0,0.0,85,0.00,CLR,CLR,0.30,WeatherDisplay:10.37,2013-03-08 04:07:00,
2013-03-07 20:12:00,43.9,39.7,29.94,NW,326,0.0,0.0,85,0.00,CLR,CLR,0.30,WeatherDisplay:10.37,2013-03-08 04:12:00,
2013-03-07 20:22:00,43.7,39.5,29.94,NW,315,0.0,0.0,85,0.00,CLR,CLR,0.30,WeatherDisplay:10.37,2013-03-08 04:22:00,
2013-03-07 20:32:00,43.5,39.3,29.94,NW,311,0.0,0.0,85,0.00,CLR,CLR,0.30,WeatherDisplay:10.37,2013-03-08 04:32:00,
2013-03-07 20:47:00,43.2,39.0,29.95,West,281,0.0,0.0,85,0.00,CLR,CLR,0.30,WeatherDisplay:10.37,2013-03-08 04:47:00,
2013-03-07 20:52:00,43.0,38.8,29.95,NW,315,0.0,0.0,85,0.00,CLR,CLR,0.30,WeatherDisplay:10.37,2013-03-08 04:52:00,
2013-03-07 21:02:00,43.0,38.8,29.95,NW,315,0.0,0.0,85,0.00,CLR,CLR,0.30,WeatherDisplay:10.37,2013-03-08 05:02:00,
2013-03-07 21:07:00,42.8,38.6,29.95,NW,315,0.0,0.0,85,0.00,CLR,CLR,0.30,WeatherDisplay:10.37,2013-03-08 05:07:00,
2013-03-07 21:12:00,42.6,38.7,29.95,NW,315,0.0,0.0,86,0.00,CLR,CLR,0.30,WeatherDisplay:10.37,2013-03-08 05:12:00,
2013-03-07 21:22:00,42.4,38.5,29.95,NW,315,0.0,0.0,86,0.00,CLR,CLR,0.30,WeatherDisplay:10.37,2013-03-08 05:22:00,
2013-03-07 21:32:00,42.3,38.4,29.95,NW,315,0.0,0.0,86,0.00,CLR,CLR,0.30,WeatherDisplay:10.37,2013-03-08 05:32:00,
2013-03-07 21:42:00,41.9,38.0,29.95,NW,315,0.0,0.0,86,0.00,CLR,CLR,0.30,WeatherDisplay:10.37,2013-03-08 05:42:00,
2013-03-07 21:47:00,41.9,38.0,29.95,NW,317,0.0,0.0,86,0.00,CLR,CLR,0.30,WeatherDisplay:10.37,2013-03-08 05:47:00,
2013-03-07 21:52:00,41.9,38.0,29.95,NW,320,0.0,0.0,86,0.00,CLR,CLR,0.30,WeatherDisplay:10.37,2013-03-08 05:52:00,
2013-03-07 22:02:00,41.5,37.7,29.95,NNW,338,0.0,0.0,86,0.00,CLR,CLR,0.30,WeatherDisplay:10.37,2013-03-08 06:02:00,
2013-03-07 22:07:00,41.5,37.7,29.96,NNW,338,0.0,0.0,86,0.00,CLR,CLR,0.30,WeatherDisplay:10.37,2013-03-08 06:07:00,
2013-03-07 22:12:00,41.5,37.7,29.96,NNW,338,0.0,0.0,86,0.00,CLR,CLR,0.30,WeatherDisplay:10.37,2013-03-08 06:12:00,
2013-03-07 22:17:00,41.5,37.7,29.96,NNW,338,0.0,0.0,86,0.00,CLR,CLR,0.30,WeatherDisplay:10.37,2013-03-08 06:17:00,
2013-03-07 22:22:00,41.4,37.5,29.96,NNW,338,0.0,0.0,86,0.00,CLR,CLR,0.30,WeatherDisplay:10.37,2013-03-08 06:22:00,
2013-03-07 22:32:00,41.2,37.3,29.96,NNW,338,0.0,0.0,86,0.00,CLR,CLR,0.30,WeatherDisplay:10.37,2013-03-08 06:32:00,
2013-03-07 22:42:00,41.2,37.3,29.96,NNW,338,0.0,0.0,86,0.00,CLR,CLR,0.30,WeatherDisplay:10.37,2013-03-08 06:42:00,
2013-03-07 22:52:00,41.0,37.4,29.97,NNW,338,0.0,0.0,87,0.00,CLR,CLR,0.30,WeatherDisplay:10.37,2013-03-08 06:52:00,
2013-03-07 22:57:00,40.8,37.0,29.97,NNW,338,0.0,0.0,86,0.00,CLR,CLR,0.30,WeatherDisplay:10.37,2013-03-08 06:57:00,
2013-03-07 23:07:00,40.8,37.0,29.96,NW,317,0.0,0.0,86,0.00,CLR,CLR,0.30,WeatherDisplay:10.37,2013-03-08 07:07:00,
2013-03-07 23:12:00,40.8,37.3,29.96,NW,315,0.0,0.0,87,0.00,CLR,CLR,0.30,WeatherDisplay:10.37,2013-03-08 07:12:00,
2013-03-07 23:22:00,40.6,37.1,29.96,NW,315,0.0,0.0,87,0.00,CLR,CLR,0.30,WeatherDisplay:10.37,2013-03-08 07:22:00,
2013-03-07 23:32:00,40.5,36.9,29.96,NW,315,0.0,0.0,87,0.00,CLR,CLR,0.30,WeatherDisplay:10.37,2013-03-08 07:32:00,
2013-03-07 23:37:00,40.5,36.9,29.96,NW,315,0.0,0.0,87,0.00,CLR,CLR,0.30,WeatherDisplay:10.37,2013-03-08 07:37:00,
2013-03-07 23:42:00,40.5,36.9,29.96,NW,315,0.0,0.0,87,0.00,CLR,CLR,0.30,WeatherDisplay:10.37,2013-03-08 07:42:00,
2013-03-07 23:52:00,40.3,36.7,29.96,NW,315,0.0,0.0,87,0.00,CLR,CLR,0.30,WeatherDisplay:10.37,2013-03-08 07:52:00,